Weather History for Knoxville, TN

Change the Weather History Date:

Friday, November 15, 2013

  Actual Average Record
Temperature  
Mean Temperature 40 °F 50 °F  
Max Temperature 49 °F 61 °F 78 °F (2005)
Min Temperature 30 °F 39 °F 16 °F (1969)
Degree Days  
Heating Degree Days 25 15  
Month to date heating degree days 229 193  
Since 1 July heating degree days 384 412  
Cooling Degree Days 0 0  
Month to date cooling degree days 0 0  
Year to date cooling degree days 1445 1523  
Moisture  
Dew Point 33 °F    
Average Humidity 68    
Maximum Humidity 89    
Minimum Humidity 46    
Precipitation  
Precipitation 0.08 in 0.13 in 1.45 in (1926)
Month to date precipitation 0.86 1.79  
Year to date precipitation 57.57 41.14  
Snow  
Snow 0.00 in 0.00 in - ()
Month to date snowfall 0.0 0.0  
Since 1 July snowfall 0.0 0.0  
Since 1 September snowfall 0.0 0.0  
Snow Depth 0.00 in    
Sea Level Pressure  
Sea Level Pressure 30.23 in    
Wind  
Wind Speed 2 mph (NE)    
Max Wind Speed 8 mph    
Max Gust Speed 10 mph    
Visibility 9 miles    
Events Rain    
T = Trace of Precipitation, MM = Missing Value Source: NWS Daily Summary

Daily Weather History Graph

Daily Weather History Graph

Search for Another Location

Airport:

Trip Planner

Search our weather history database for the weather conditions in past years. The results will help you decide how hot, cold, wet, or windy it might be!

Date:

Astronomy

Nov. 15, 2013 Rise Set
Actual Time 7:12 AM EST 5:28 PM EST
Civil Twilight 6:45 AM EST 5:55 PM EST
Nautical Twilight 6:14 AM EST 6:26 PM EST
Astronomical Twilight 5:43 AM EST 6:56 PM EST
Moon 4:22 PM EST (11/15) 5:11 AM EST (11/15)
Length of Visible Light 11h 10m
Length of Day
10h 16m
Waxing Gibbous, 96% of the Moon is Illuminated
Nov 15
Waxing Gibbous
Nov 17
Full
Nov 25
Last Quarter
Dec 2
New
Dec 9
First Quarter

Hourly Weather History & Observations

Time (EST) Temp. Windchill Dew Point Humidity Pressure Visibility Wind Dir Wind Speed Gust Speed Precip Events Conditions
12:53 AM 34.0 °F - 24.1 °F 67% 30.28 in 10.0 mi Calm Calm - N/A   Mostly Cloudy
1:53 AM 32.0 °F - 23.0 °F 69% 30.28 in 10.0 mi Calm Calm - N/A   Mostly Cloudy
2:53 AM 30.0 °F 26.5 °F 24.1 °F 79% 30.27 in 10.0 mi ENE 3.5 mph - N/A   Mostly Cloudy
3:53 AM 33.1 °F - 25.0 °F 72% 30.26 in 10.0 mi Calm Calm - N/A   Mostly Cloudy
4:53 AM 34.0 °F 29.8 °F 26.1 °F 73% 30.26 in 10.0 mi NNW 4.6 mph - N/A   Mostly Cloudy
5:53 AM 34.0 °F 31.0 °F 28.0 °F 79% 30.27 in 10.0 mi East 3.5 mph - N/A   Mostly Cloudy
6:53 AM 32.0 °F 28.7 °F 26.1 °F 79% 30.29 in 10.0 mi ENE 3.5 mph - N/A   Mostly Cloudy
7:53 AM 33.1 °F 30.0 °F 26.1 °F 75% 30.30 in 10.0 mi ENE 3.5 mph - N/A   Mostly Cloudy
8:53 AM 37.9 °F 33.5 °F 30.0 °F 73% 30.30 in 10.0 mi NNE 5.8 mph - N/A   Overcast
9:53 AM 39.9 °F 35.8 °F 28.9 °F 65% 30.30 in 10.0 mi NE 5.8 mph - N/A   Overcast
10:53 AM 44.1 °F 41.5 °F 26.1 °F 49% 30.30 in 10.0 mi ENE 4.6 mph - N/A   Overcast
11:53 AM 46.0 °F - 28.0 °F 50% 30.28 in 10.0 mi Calm Calm - N/A   Overcast
12:53 PM 48.9 °F - 28.0 °F 44% 30.24 in 10.0 mi Calm Calm - N/A   Overcast
1:53 PM 48.9 °F - 28.0 °F 44% 30.23 in 10.0 mi Calm Calm - N/A   Overcast
2:04 PM 48.2 °F - 28.4 °F 46% 30.21 in 10.0 mi Calm Calm - 0.00 in Rain Light Rain
2:53 PM 48.0 °F - 33.1 °F 56% 30.20 in 10.0 mi ENE 4.6 mph - 0.00 in   Overcast
3:53 PM 46.9 °F - 36.0 °F 66% 30.20 in 8.0 mi East 4.6 mph - 0.01 in Rain Light Rain
4:26 PM 46.4 °F - 39.2 °F 76% 30.18 in 7.0 mi Calm Calm - 0.01 in Rain Light Rain
4:53 PM 45.0 °F 43.5 °F 39.0 °F 80% 30.19 in 9.0 mi North 3.5 mph - 0.02 in Rain Light Rain
5:53 PM 44.1 °F - 39.0 °F 82% 30.19 in 8.0 mi Calm Calm - 0.03 in Rain Light Rain
6:30 PM 44.6 °F - 39.2 °F 81% 30.18 in 7.0 mi Calm Calm - 0.02 in Rain Light Rain
6:53 PM 44.1 °F - 39.9 °F 85% 30.19 in 9.0 mi Calm Calm - 0.02 in Rain Light Rain
7:53 PM 45.0 °F 43.5 °F 39.9 °F 82% 30.19 in 9.0 mi NE 3.5 mph - 0.00 in   Overcast
8:10 PM 44.6 °F 43.1 °F 41.0 °F 87% 30.18 in 8.0 mi NE 3.5 mph - N/A   Overcast
8:53 PM 45.0 °F 43.5 °F 41.0 °F 86% 30.19 in 7.0 mi East 3.5 mph - N/A   Overcast
9:53 PM 45.0 °F - 41.0 °F 86% 30.20 in 8.0 mi Calm Calm - N/A   Overcast
10:32 PM 44.6 °F - 41.0 °F 87% 30.20 in 8.0 mi Calm Calm - N/A   Overcast
10:53 PM 45.0 °F - 41.0 °F 86% 30.21 in 8.0 mi Calm Calm - N/A   Overcast
11:05 PM 44.6 °F - 41.0 °F 87% 30.20 in 8.0 mi Calm Calm - N/A   Overcast
11:32 PM 44.6 °F - 41.0 °F 87% 30.19 in 7.0 mi Calm Calm - N/A   Overcast